TimeICT,TemperatureF,Dew PointF,Humidity,Sea Level PressureIn,VisibilityMPH,Wind Direction,Wind SpeedMPH,Gust SpeedMPH,PrecipitationIn,Events,Conditions,WindDirDegrees,DateUTC
7:00 AM,,,,,,Calm,Calm,,,,,,2012-10-05 00:00:00
7:00 AM,82.4,77.0,84,29.77,6.2,Calm,Calm,-,N/A,,Mostly Cloudy,0,2012-10-05 00:00:00
7:30 AM,82.4,77.0,84,29.80,6.2,SW,2.3,-,N/A,,Mostly Cloudy,230,2012-10-05 00:30:00
8:00 AM,84.2,77.0,79,29.80,6.2,West,5.8,-,N/A,,Mostly Cloudy,260,2012-10-05 01:00:00
8:30 AM,84.2,77.0,79,29.80,6.2,WSW,5.8,-,N/A,,Scattered Clouds,250,2012-10-05 01:30:00
9:00 AM,84.2,77.0,79,30.09,6.2,WNW,5.8,-,N/A,,Mostly Cloudy,290,2012-10-05 02:00:00
9:30 AM,82.4,78.8,89,29.83,6.2,West,5.8,-,N/A,,Mostly Cloudy,280,2012-10-05 02:30:00
10:00 AM,84.2,77.0,79,29.83,6.2,WNW,5.8,-,N/A,,Scattered Clouds,290,2012-10-05 03:00:00
10:30 AM,86.0,77.0,74,29.80,6.2,NW,9.2,-,N/A,,Scattered Clouds,310,2012-10-05 03:30:00
11:00 AM,87.8,77.0,70,29.80,6.2,NW,3.5,-,N/A,,Scattered Clouds,320,2012-10-05 04:00:00
11:30 AM,87.8,75.2,66,29.80,6.2,WNW,12.7,-,N/A,,Scattered Clouds,300,2012-10-05 04:30:00
12:00 PM,87.8,75.2,66,29.77,6.2,WNW,11.5,-,N/A,,Scattered Clouds,290,2012-10-05 05:00:00
12:30 PM,87.8,75.2,66,29.74,6.2,NW,11.5,-,N/A,,Scattered Clouds,310,2012-10-05 05:30:00
1:00 PM,89.6,75.2,62,29.74,6.2,WNW,8.1,-,N/A,,Scattered Clouds,290,2012-10-05 06:00:00
1:30 PM,87.8,75.2,66,29.71,6.2,WNW,8.1,-,N/A,,Scattered Clouds,290,2012-10-05 06:30:00
2:00 PM,87.8,75.2,66,29.71,6.2,NW,8.1,-,N/A,,Scattered Clouds,310,2012-10-05 07:00:00
2:30 PM,86.0,75.2,70,29.68,6.2,West,8.1,-,N/A,,Scattered Clouds,270,2012-10-05 07:30:00
3:00 PM,86.0,75.2,70,29.68,6.2,NW,3.5,-,N/A,,Mostly Cloudy,310,2012-10-05 08:00:00
3:30 PM,87.8,75.2,66,29.68,6.2,NW,5.8,-,N/A,,Scattered Clouds,310,2012-10-05 08:30:00
4:00 PM,87.8,75.2,66,29.68,6.2,WNW,3.5,-,N/A,,Scattered Clouds,300,2012-10-05 09:00:00
4:30 PM,87.8,77.0,70,29.68,6.2,West,3.5,-,N/A,,Scattered Clouds,270,2012-10-05 09:30:00
5:00 PM,87.8,75.2,66,29.68,6.2,Calm,Calm,-,N/A,,Mostly Cloudy,0,2012-10-05 10:00:00
5:30 PM,86.0,77.0,74,29.68,6.2,Variable,1.2,-,N/A,,Mostly Cloudy,0,2012-10-05 10:30:00
6:00 PM,86.0,77.0,74,29.68,6.2,Calm,Calm,-,N/A,,Mostly Cloudy,0,2012-10-05 11:00:00
6:30 PM,86.0,77.0,74,29.71,6.2,Calm,Calm,-,N/A,,Mostly Cloudy,0,2012-10-05 11:30:00
7:00 PM,84.2,78.8,84,29.71,6.2,Calm,Calm,-,N/A,,Scattered Clouds,0,2012-10-05 12:00:00
7:30 PM,84.2,78.8,84,29.74,6.2,Calm,Calm,-,N/A,,Scattered Clouds,0,2012-10-05 12:30:00
8:00 PM,84.2,78.8,84,29.77,6.2,Calm,Calm,-,N/A,,Scattered Clouds,0,2012-10-05 13:00:00
8:30 PM,84.2,78.8,84,29.77,6.2,Calm,Calm,-,N/A,,Scattered Clouds,0,2012-10-05 13:30:00
9:00 PM,84.2,78.8,84,29.80,6.2,Calm,Calm,-,N/A,,Scattered Clouds,0,2012-10-05 14:00:00
9:30 PM,84.2,78.8,84,29.80,6.2,Calm,Calm,-,N/A,,Scattered Clouds,0,2012-10-05 14:30:00
10:00 PM,82.4,75.2,79,29.80,6.2,SW,9.2,-,N/A,,Scattered Clouds,230,2012-10-05 15:00:00
10:30 PM,82.4,73.4,74,29.80,5.6,SW,13.8,-,N/A,,Scattered Clouds,220,2012-10-05 15:30:00